Weather History for KLHM - March, 2014

Change the Weather History Date:

Tuesday, March 18, 2014

  Actual Average (KAUN) Record (KAUN)
Temperature  
Mean Temperature 56 °F -  
Max Temperature 71 °F 61 °F 80 °F (1972)
Min Temperature 41 °F 41 °F 32 °F (1952)
Degree Days  
Heating Degree Days 9    
Growing Degree Days 6 (Base 50)    
Moisture  
Dew Point 32 °F    
Average Humidity 47    
Maximum Humidity 76    
Minimum Humidity 20    
Precipitation  
Precipitation 0.00 in - - ()
Sea Level Pressure  
Sea Level Pressure 29.92 in    
Wind  
Wind Speed 10 mph (NNW)    
Max Wind Speed 15 mph    
Max Gust Speed 18 mph    
Visibility 10 miles    
Events      
Averages and records for this station are not official NWS values.
T = Trace of Precipitation, MM = Missing Value Source: NWS Daily Summary

Daily Weather History Graph

Daily Weather History Graph

Search for Another Location

Airport or City:

Trip Planner

Search our weather history database for the weather conditions in past years. The results will help you decide how hot, cold, wet, or windy it might be!

Date:

Astronomy

Mar. 18, 2014 Rise Set
Actual Time 7:11 AM PDT 7:15 PM PDT
Civil Twilight 6:45 AM PDT 7:42 PM PDT
Nautical Twilight 6:14 AM PDT 8:13 PM PDT
Astronomical Twilight 5:42 AM PDT 8:44 PM PDT
Moon 9:36 PM PDT (3/18) 8:05 AM PDT (3/18)
Length of Visible Light 12h 56m
Length of Day
12h 03m
Waning Gibbous, 96% of the Moon is Illuminated
Mar 18
Waning Gibbous
Mar 23
Last Quarter
Mar 30
New
Apr 7
First Quarter
Apr 15
Full

Hourly Weather History & Observations

Time (PDT) Temp. Windchill Dew Point Humidity Pressure Visibility Wind Dir Wind Speed Gust Speed Precip Events Conditions
12:15 AM 44.6 °F 39.7 °F 33.8 °F 66% 29.94 in 10.0 mi NNW 9.2 mph - N/A   Clear
12:35 AM 44.6 °F 38.1 °F 33.8 °F 66% 29.94 in 10.0 mi NNW 13.8 mph - N/A   Clear
12:55 AM 46.4 °F 41.1 °F 33.8 °F 62% 29.94 in 10.0 mi North 11.5 mph - N/A   Clear
1:15 AM 46.4 °F 41.1 °F 33.8 °F 62% 29.94 in 10.0 mi NNW 11.5 mph - N/A   Clear
1:35 AM 46.4 °F 40.4 °F 32.0 °F 57% 29.95 in 10.0 mi NNW 13.8 mph - N/A   Clear
1:55 AM 46.4 °F 40.7 °F 32.0 °F 57% 29.94 in 10.0 mi NNW 12.7 mph - N/A   Clear
2:15 AM 46.4 °F 41.1 °F 32.0 °F 57% 29.94 in 10.0 mi NNW 11.5 mph - N/A   Clear
2:35 AM 46.4 °F 41.9 °F 32.0 °F 57% 29.94 in 10.0 mi NNW 9.2 mph - N/A   Clear
2:55 AM 46.4 °F 41.1 °F 32.0 °F 57% 29.94 in 10.0 mi NNW 11.5 mph - N/A   Clear
3:15 AM 44.6 °F 39.2 °F 32.0 °F 61% 29.93 in 10.0 mi NNW 10.4 mph - N/A   Clear
3:35 AM 44.6 °F 39.2 °F 32.0 °F 61% 29.93 in 10.0 mi NNW 10.4 mph - N/A   Clear
3:55 AM 44.6 °F 38.8 °F 32.0 °F 61% 29.93 in 10.0 mi NNW 11.5 mph - N/A   Clear
4:15 AM 44.6 °F 38.4 °F 32.0 °F 61% 29.92 in 10.0 mi NNW 12.7 mph 17.3 mph N/A   Clear
4:35 AM 44.6 °F 38.1 °F 32.0 °F 61% 29.92 in 10.0 mi NNW 13.8 mph - N/A   Clear
4:55 AM 44.6 °F 38.1 °F 32.0 °F 61% 29.92 in 10.0 mi NNW 13.8 mph - N/A   Clear
5:15 AM 44.6 °F 38.4 °F 32.0 °F 61% 29.92 in 10.0 mi North 12.7 mph - N/A   Clear
5:35 AM 42.8 °F 36.2 °F 32.0 °F 66% 29.92 in 10.0 mi North 12.7 mph - N/A   Clear
5:55 AM 42.8 °F 37.5 °F 32.0 °F 66% 29.91 in 10.0 mi North 9.2 mph - N/A   Clear
6:15 AM 42.8 °F 37.0 °F 32.0 °F 66% 29.91 in 10.0 mi North 10.4 mph - N/A   Clear
6:35 AM 42.8 °F 37.0 °F 32.0 °F 66% 29.91 in 10.0 mi NNW 10.4 mph - N/A   Clear
6:55 AM 41.0 °F 35.2 °F 32.0 °F 70% 29.91 in 10.0 mi NNW 9.2 mph - N/A   Clear
7:15 AM 41.0 °F 35.2 °F 32.0 °F 70% 29.92 in 10.0 mi NNW 9.2 mph - N/A   Clear
7:35 AM 41.0 °F 35.2 °F 32.0 °F 70% 29.92 in 10.0 mi NNW 9.2 mph - N/A   Clear
7:55 AM 41.0 °F 38.0 °F 32.0 °F 70% 29.93 in 10.0 mi North 4.6 mph - N/A   Clear
8:15 AM 44.6 °F 42.2 °F 32.0 °F 61% 29.93 in 10.0 mi NNE 4.6 mph - N/A   Clear
8:35 AM 46.4 °F 43.5 °F 33.8 °F 62% 29.94 in 10.0 mi North 5.8 mph - N/A   Clear
8:55 AM 46.4 °F 42.4 °F 32.0 °F 57% 29.95 in 10.0 mi NNW 8.1 mph - N/A   Clear
9:15 AM 50.0 °F - 32.0 °F 50% 29.95 in 10.0 mi NNW 11.5 mph 17.3 mph N/A   Clear
9:35 AM 51.8 °F - 32.0 °F 47% 29.95 in 10.0 mi NNW 13.8 mph - N/A   Clear
9:55 AM 53.6 °F - 30.2 °F 41% 29.96 in 10.0 mi NNW 11.5 mph - N/A   Clear
10:15 AM 55.4 °F - 32.0 °F 41% 29.96 in 10.0 mi NNW 15.0 mph - N/A   Clear
10:35 AM 57.2 °F - 30.2 °F 36% 29.96 in 10.0 mi NNW 15.0 mph - N/A   Clear
10:55 AM 59.0 °F - 32.0 °F 36% 29.96 in 10.0 mi NNW 12.7 mph - N/A   Clear
11:15 AM 60.8 °F - 32.0 °F 34% 29.96 in 10.0 mi NNW 13.8 mph 17.3 mph N/A   Clear
11:35 AM 60.8 °F - 32.0 °F 34% 29.96 in 10.0 mi NNW 13.8 mph 18.4 mph N/A   Clear
11:55 AM 62.6 °F - 32.0 °F 32% 29.96 in 10.0 mi NNW 13.8 mph 17.3 mph N/A   Clear
12:15 PM 62.6 °F - 32.0 °F 32% 29.95 in 10.0 mi North 10.4 mph - N/A   Clear
12:35 PM 64.4 °F - 32.0 °F 30% 29.95 in 10.0 mi NW 10.4 mph - N/A   Clear
12:55 PM 64.4 °F - 32.0 °F 30% 29.94 in 10.0 mi NNW 9.2 mph - N/A   Clear
1:15 PM 66.2 °F - 32.0 °F 28% 29.94 in 10.0 mi NW 10.4 mph - N/A   Clear
1:35 PM 68.0 °F - 30.2 °F 24% 29.93 in 10.0 mi NW 6.9 mph 16.1 mph N/A   Clear
1:55 PM 68.0 °F - 30.2 °F 24% 29.93 in 10.0 mi North 9.2 mph - N/A   Clear
2:15 PM 68.0 °F - 28.4 °F 23% 29.92 in 10.0 mi North 6.9 mph - N/A   Clear
2:35 PM 68.0 °F - 28.4 °F 23% 29.92 in 10.0 mi NNW 6.9 mph - N/A   Clear
2:55 PM 69.8 °F - 28.4 °F 21% 29.91 in 10.0 mi NW 6.9 mph - N/A   Clear
3:15 PM 69.8 °F - 28.4 °F 21% 29.91 in 10.0 mi North 4.6 mph - N/A   Clear
3:35 PM 69.8 °F - 30.2 °F 23% 29.91 in 10.0 mi North 8.1 mph - N/A   Clear
3:55 PM 69.8 °F - 28.4 °F 21% 29.90 in 10.0 mi NW 5.8 mph - N/A   Clear
4:15 PM 69.8 °F - 30.2 °F 23% 29.90 in 10.0 mi North 9.2 mph - N/A   Clear
4:35 PM 69.8 °F - 30.2 °F 23% 29.89 in 10.0 mi NNW 9.2 mph - N/A   Clear
4:55 PM 71.6 °F - 30.2 °F 22% 29.89 in 10.0 mi NNW 10.4 mph - N/A   Clear
5:15 PM 71.6 °F - 30.2 °F 22% 29.88 in 10.0 mi NW 5.8 mph - N/A   Clear
5:35 PM 71.6 °F - 28.4 °F 20% 29.88 in 10.0 mi NNW 6.9 mph - N/A   Clear
5:55 PM 69.8 °F - 30.2 °F 23% 29.88 in 10.0 mi NW 5.8 mph - N/A   Clear
6:15 PM 69.8 °F - 32.0 °F 25% 29.88 in 10.0 mi NNW 4.6 mph - N/A   Clear
6:35 PM 68.0 °F - 32.0 °F 26% 29.88 in 10.0 mi NW 4.6 mph - N/A   Clear
6:55 PM 64.4 °F - 32.0 °F 30% 29.88 in 10.0 mi NW 5.8 mph - N/A   Clear
7:15 PM 64.4 °F - 32.0 °F 30% 29.89 in 10.0 mi WNW 4.6 mph - N/A   Clear
7:35 PM 60.8 °F - 32.0 °F 34% 29.89 in 10.0 mi NW 4.6 mph - N/A   Clear
7:55 PM 60.8 °F - 32.0 °F 34% 29.89 in 10.0 mi West 4.6 mph - N/A   Clear
8:15 PM 55.4 °F - 35.6 °F 47% 29.89 in 10.0 mi West 3.5 mph - N/A   Clear
8:35 PM 57.2 °F - 33.8 °F 41% 29.90 in 10.0 mi West 3.5 mph - N/A   Clear
8:55 PM 55.4 °F - 35.6 °F 47% 29.90 in 10.0 mi SSW 3.5 mph - N/A   Clear
9:15 PM 59.0 °F - 32.0 °F 36% 29.91 in 10.0 mi SSE 3.5 mph - N/A   Clear
9:35 PM 46.4 °F - 39.2 °F 76% 29.91 in 10.0 mi Calm Calm - N/A   Clear
9:55 PM 46.4 °F - 39.2 °F 76% 29.92 in 10.0 mi Calm Calm - N/A   Clear
10:15 PM 46.4 °F - 37.4 °F 71% 29.92 in 10.0 mi Calm Calm - N/A   Clear
10:35 PM 44.6 °F - 37.4 °F 76% 29.93 in 10.0 mi Calm Calm - N/A   Clear
10:55 PM 46.4 °F - 37.4 °F 71% 29.93 in 10.0 mi Calm Calm - N/A   Clear
11:15 PM 51.8 °F - 35.6 °F 54% 29.94 in 10.0 mi SE 4.6 mph - N/A   Clear
11:35 PM 51.8 °F - 35.6 °F 54% 29.95 in 10.0 mi SE 3.5 mph - N/A   Clear
11:55 PM 50.0 °F - 35.6 °F 58% 29.95 in 10.0 mi ESE 3.5 mph - N/A   Clear